Wind_Speed
40 35 33 25 17 11 18 29 36 44 40 45 55 60 62 66 70 73 62 57 55 60 54 47 43 45 41 39 37 34 33 33 31 27 25 22 23 20 18 15 15 15 15 16 16 17 19 19 21
46 41 32 27 21 17 29 36 33 33 36 38 43 51 53 67 65 71 66 61 65 64 60 55 49 47 47 44 42 39 36 35 33 32 28 27 26 22 20 18 17 19 19 19 19 19 19 19 21
57 48 42 31 18 22 36 36 33 34 31 41 33 44 52 63 66 66 67 68 70 68 66 62 56 51 49 48 45 43 40 38 36 34 32 29 29 28 26 23 21 20 20 21 22 22 22 24 22
59 56 48 42 29 34 37 39 35 31 30 36 48 46 38 56 52 54 68 66 75 74 71 69 63 58 53 51 49 47 45 42 39 36 35 33 32 29 28 27 24 22 21 21 22 24 25 26 25
64 61 53 47 44 42 44 42 39 36 37 39 46 51 56 52 49 54 64 70 72 72 74 72 68 63 59 54 51 49 47 45 41 39 37 36 34 31 29 30 27 23 22 21 24 25 26 27 25
68 68 62 54 54 49 46 47 46 46 42 38 45 51 50 53 44 46 59 66 69 70 71 74 72 66 63 58 53 51 50 49 45 42 39 40 38 33 33 31 29 27 25 26 27 27 27 27 25
76 70 65 62 59 59 55 56 47 48 49 44 46 54 59 55 47 45 53 59 61 69 69 69 68 68 68 63 57 56 54 53 51 48 44 43 42 37 35 33 30 30 29 27 26 26 26 26 26
81 75 65 66 68 69 66 61 52 48 50 52 53 53 54 65 55 45 47 58 63 63 63 59 58 68 68 67 63 59 58 57 56 52 48 45 44 41 37 36 34 32 30 30 27 29 27 26 27
82 76 69 73 76 73 72 65 60 53 54 55 61 61 61 63 63 60 46 53 61 67 55 61 59 62 65 69 67 64 61 58 58 55 49 48 46 45 41 40 37 34 32 33 31 30 29 34 33
86 80 73 78 77 72 73 72 68 61 56 58 64 66 74 68 66 67 57 51 61 67 65 52 58 58 64 61 68 68 65 62 61 59 54 52 49 48 46 44 41 40 38 38 38 35 33 35 33
87 80 81 79 78 75 72 73 69 68 60 67 74 74 82 76 67 68 61 55 59 63 63 74 73 73 62 50 56 64 67 64 61 61 61 58 55 53 50 49 46 43 42 41 40 38 37 33 35
89 83 85 83 80 78 76 75 73 71 64 66 79 75 85 81 73 72 63 54 56 63 67 63 67 72 61 56 51 60 66 64 62 65 63 62 59 57 54 55 51 48 46 43 41 43 35 37 41
86 87 86 88 87 85 83 78 73 72 66 72 77 80 85 81 72 72 67 59 55 59 64 67 68 61 59 65 54 58 62 66 66 64 64 65 62 60 58 57 55 52 51 46 44 47 44 42 43
90 86 84 87 88 87 84 82 79 71 74 76 80 81 82 74 72 79 71 60 57 66 69 72 64 63 60 60 54 55 61 63 67 67 71 70 68 66 63 57 56 56 51 51 47 44 47 44 42
85 85 85 85 86 87 87 79 79 77 76 70 75 77 80 72 75 81 75 62 60 71 73 71 71 64 65 72 64 60 57 55 62 67 70 72 71 70 69 66 60 54 53 50 49 47 51 49 50
83 82 84 84 84 84 82 77 75 69 68 68 74 75 74 74 79 82 76 65 67 78 84 89 79 67 64 73 69 64 63 57 58 62 69 68 70 74 73 69 67 62 56 55 54 49 53 54 56
78 81 79 78 78 79 76 70 67 64 64 66 70 74 73 79 82 82 77 69 74 84 89 90 89 79 78 77 69 70 71 61 63 60 59 64 65 66 67 68 68 61 62 57 52 55 55 55 56
66 68 71 73 73 69 68 62 64 66 65 68 69 73 74 77 83 83 79 68 73 89 90 83 87 81 78 71 78 73 79 67 60 61 63 61 63 66 68 66 67 66 65 57 60 58 56 57 58
59 61 62 65 65 64 65 61 64 63 61 61 64 62 64 74 83 84 73 67 71 81 94 98 83 73 74 78 78 76 72 68 67 61 54 53 55 62 62 63 62 64 62 61 60 61 59 61 63
52 54 56 60 60 60 61 61 59 60 57 57 59 60 71 76 83 82 69 74 72 80 91 95 87 80 78 79 75 75 75 75 65 56 55 48 59 61 62 62 60 62 65 66 69 66 68 67 63
47 50 55 57 57 58 59 61 63 62 61 62 62 67 75 82 85 79 77 78 78 83 88 90 97 88 82 84 84 80 75 73 69 62 52 50 55 57 57 53 56 60 65 68 69 69 65 62 64
47 52 53 55 57 58 58 56 53 52 54 56 60 67 80 86 86 83 83 81 88 88 93 98 97 95 91 80 83 80 75 72 64 60 61 59 58 55 58 62 58 57 61 63 64 67 67 68 70
47 49 49 48 47 45 41 38 39 40 45 49 53 66 74 82 86 91 88 89 91 90 89 92 86 100 91 90 87 84 71 69 69 63 62 64 64 68 64 62 60 63 68 67 64 63 65 72 73
39 37 36 34 33 29 28 28 30 33 37 42 50 62 76 85 92 92 91 89 84 90 89 88 91 96 87 85 83 76 77 81 80 75 75 71 69 69 69 68 66 72 76 73 74 72 72 75 75
26 26 27 28 26 21 23 26 28 30 34 39 55 73 79 84 81 94 89 92 95 96 93 92 96 98 101 96 93 89 82 83 83 83 82 80 78 73 73 73 72 76 77 77 76 75 74 76 78
18 20 19 17 17 21 25 27 28 33 40 52 73 90 85 77 84 94 97 100 104 105 100 92 97 96 100 95 93 93 89 84 85 80 77 80 78 78 77 76 75 82 83 81 84 81 80 80 84
10 11 13 16 17 22 21 25 31 38 49 66 81 93 88 79 89 92 102 105 103 109 102 95 88 94 93 97 93 95 93 92 87 87 88 81 81 81 79 79 81 87 88 83 85 83 83 84 90
17 20 24 21 21 20 24 29 35 45 55 71 89 97 86 82 90 96 110 101 98 97 103 99 89 90 90 92 93 91 91 94 97 89 87 81 86 81 79 82 84 90 86 84 84 85 84 88 91
28 28 29 25 24 22 20 26 32 52 66 82 96 99 81 84 86 87 97 95 90 96 108 98 97 96 98 97 97 98 94 89 91 90 88 87 87 89 89 85 87 91 87 90 90 91 97 98 98
31 36 34 33 28 24 21 21 29 49 72 93 92 101 84 82 99 88 92 95 98 85 100 102 108 103 96 98 95 103 99 94 94 94 95 95 98 98 97 98 98 105 103 105 107 101 105 103 101
Wind_Direction
244 245 242 238 222 246 256 259 249 252 257 236 235 235 234 234 234 239 236 233 233 235 233 232 234 239 240 243 246 247 250 250 251 254 256 261 268 267 256 263 274 286 288 288 287 294 297 300 300
249 241 246 236 242 235 262 261 259 263 260 249 235 229 234 237 233 237 235 231 231 234 232 234 231 237 240 242 244 247 249 251 249 254 256 258 261 266 258 266 279 287 287 284 287 290 295 301 301
247 249 242 234 243 241 252 265 260 262 265 263 259 233 231 239 237 235 235 230 232 234 236 233 230 233 237 238 242 245 250 251 250 253 256 259 260 260 263 269 276 280 281 277 281 287 293 297 299
245 245 244 235 238 254 256 261 266 274 271 269 267 245 238 234 236 234 236 233 233 235 235 235 234 232 233 236 240 244 248 250 252 252 256 258 259 261 265 271 275 280 279 277 280 284 290 294 294
247 246 243 238 242 247 255 265 268 264 267 274 266 263 261 231 236 232 236 234 233 237 233 234 236 236 232 234 236 240 247 250 251 254 257 261 262 259 266 272 274 278 274 277 283 284 290 293 295
249 246 244 237 240 249 256 262 266 268 259 259 261 260 258 252 241 224 235 233 233 237 238 233 235 237 233 231 234 238 243 248 250 252 257 263 264 263 264 268 272 275 275 277 286 281 287 290 293
247 247 245 242 244 248 254 259 255 263 270 274 247 254 259 258 251 226 230 233 230 233 239 237 239 237 236 233 232 237 240 244 248 252 256 261 264 265 264 267 271 272 274 276 277 275 282 288 295
248 248 249 246 244 242 250 252 257 265 257 265 259 246 248 261 254 215 235 233 228 227 234 238 240 238 236 236 235 235 240 242 246 248 253 257 262 267 267 267 269 270 270 277 274 275 282 283 293
252 249 248 249 245 241 249 249 253 259 261 259 247 251 247 251 251 252 242 228 228 224 219 217 237 239 243 240 239 238 238 242 245 247 249 255 259 263 266 267 268 270 273 272 275 277 283 285 286
253 253 251 250 250 249 249 247 254 256 259 253 246 244 248 246 245 252 250 227 224 224 217 221 244 233 240 240 239 238 239 241 243 248 249 252 255 259 262 265 269 268 268 273 276 277 284 279 283
252 253 253 255 253 254 251 250 255 252 258 247 245 243 248 248 243 252 256 232 226 222 212 203 214 233 235 239 240 241 240 241 242 245 248 250 252 255 261 263 266 269 271 273 273 278 278 277 279
251 253 252 252 254 254 255 253 255 252 257 248 245 241 247 253 244 251 249 236 224 216 215 206 224 227 227 238 237 242 245 243 242 243 248 250 251 252 260 264 264 268 272 271 277 279 277 275 279
252 251 253 253 255 256 256 257 253 254 251 246 247 242 247 247 241 245 243 240 220 212 211 201 215 231 236 229 235 242 246 248 245 243 246 249 252 256 258 262 264 267 271 271 275 275 277 281 280
253 252 254 254 255 257 255 255 254 254 251 244 245 246 244 238 233 242 242 235 214 204 198 206 213 219 225 230 229 239 242 244 247 247 246 247 250 252 258 261 262 267 271 276 277 280 281 279 275
251 254 253 252 255 257 254 258 256 248 248 247 250 246 241 232 236 243 242 227 209 197 187 188 198 212 222 238 241 234 243 246 245 247 249 249 249 252 255 259 262 269 271 276 271 276 280 279 268
250 251 254 254 255 255 256 255 255 252 249 243 246 240 236 227 230 236 234 223 208 193 192 195 198 217 225 234 228 235 241 239 250 256 248 250 255 256 257 258 264 267 271 276 273 269 278 274 275
250 251 253 255 255 255 256 253 253 250 243 237 240 234 232 222 227 236 229 222 202 192 197 202 209 209 219 220 231 237 234 245 249 249 251 249 252 257 264 265 264 268 267 271 268 268 271 269 270
248 251 251 252 254 255 258 253 250 248 243 238 236 231 228 223 224 227 226 219 204 194 195 196 199 209 215 220 225 231 238 240 242 249 249 245 249 255 260 261 265 268 267 263 263 266 267 264 269
249 248 249 252 255 256 255 255 254 252 245 237 233 227 222 220 222 223 224 209 198 201 196 196 203 211 213 219 227 229 233 238 245 245 247 243 247 248 251 256 260 266 259 259 263 262 261 265 270
246 249 250 253 254 257 258 258 257 256 252 243 236 226 219 217 217 221 213 205 196 199 199 201 202 210 215 220 219 222 230 237 236 242 241 246 247 248 252 253 252 252 254 257 263 261 265 268 268
249 251 251 255 258 259 260 259 257 255 251 243 232 221 214 209 215 214 206 204 201 203 206 208 208 214 218 222 229 232 232 235 240 237 242 242 241 242 241 243 249 254 257 258 259 261 263 261 265
250 253 257 259 260 259 259 259 256 250 243 236 225 213 207 203 204 203 205 199 200 204 208 212 215 217 220 229 228 226 228 237 234 236 234 232 237 243 246 247 251 252 255 256 258 260 260 259 263
255 259 261 263 263 261 255 246 236 229 225 219 208 202 197 197 196 198 199 202 202 207 208 211 213 213 222 227 231 231 236 232 239 248 242 241 242 241 242 247 249 254 255 257 257 256 256 260 262
264 263 263 261 255 247 236 222 210 207 204 199 195 193 186 188 188 194 196 197 203 201 199 207 212 214 221 229 233 232 239 240 244 247 250 243 242 242 246 246 250 254 254 257 256 256 256 259 261
259 257 253 250 243 219 201 193 187 183 185 184 181 175 177 181 186 193 190 195 198 203 197 209 214 221 223 231 234 233 237 243 244 248 249 247 244 244 245 248 251 251 254 255 257 258 257 260 262
253 248 239 223 203 174 175 170 169 164 166 167 165 167 164 175 180 191 192 196 194 203 202 211 217 222 227 230 230 235 239 242 243 243 239 241 244 244 245 246 248 251 252 253 257 260 260 262 265
216 184 168 176 166 151 156 160 156 158 162 161 165 171 173 179 186 190 195 196 200 203 204 207 217 221 225 230 231 235 236 239 239 239 239 241 243 244 245 250 254 257 257 261 262 264 264 264 266
145 147 137 131 126 135 143 159 161 157 161 165 167 173 180 187 191 191 199 201 203 206 210 211 216 220 224 226 228 232 236 237 237 238 239 243 245 248 249 251 251 254 258 259 261 265 265 265 268
137 133 124 123 118 123 124 157 163 162 162 166 170 176 180 189 184 196 200 203 206 208 212 214 217 220 225 227 230 232 233 235 235 237 239 244 246 253 252 255 255 254 256 259 261 262 266 272 271
132 123 122 116 107 118 130 146 174 169 167 169 175 180 184 190 196 193 199 204 208 212 214 217 218 221 223 228 231 233 236 240 239 243 248 249 251 253 255 256 255 257 262 263 266 271 272 271 276
Height
10779 10781 10784 10788 10793 10794 10793 10788 10789 10793 10799 10805 10808 10813 10818 10821 10832 10831 10849 10857 10863 10854 10863 10869 10872 10877 10881 10884 10887 10891 10894 10897 10900 10903 10905 10906 10908 10910 10911 10912 10913 10914 10913 10913 10913 10913 10912 10911 10911
10769 10773 10776 10781 10788 10789 10783 10778 10782 10784 10789 10794 10807 10806 10807 10809 10820 10824 10839 10847 10844 10846 10853 10859 10864 10868 10874 10878 10881 10884 10888 10891 10895 10898 10900 10902 10903 10906 10907 10908 10909 10910 10910 10910 10910 10910 10909 10909 10908
10759 10763 10769 10773 10780 10780 10772 10772 10775 10776 10779 10785 10789 10795 10799 10799 10808 10817 10821 10833 10832 10838 10843 10847 10855 10859 10865 10871 10875 10878 10882 10885 10889 10892 10895 10897 10898 10900 10903 10904 10905 10906 10906 10906 10907 10906 10906 10905 10905
10748 10751 10758 10766 10768 10766 10765 10762 10766 10769 10772 10773 10775 10785 10791 10790 10800 10808 10807 10819 10821 10826 10834 10838 10845 10851 10856 10862 10868 10872 10876 10879 10883 10886 10890 10892 10893 10896 10898 10900 10901 10902 10902 10902 10903 10902 10902 10901 10901
10734 10738 10746 10756 10757 10753 10753 10755 10756 10761 10764 10764 10765 10769 10772 10776 10788 10794 10796 10806 10814 10817 10823 10831 10837 10844 10848 10853 10859 10865 10869 10873 10876 10880 10883 10885 10888 10891 10893 10895 10896 10897 10898 10898 10898 10898 10897 10897 10896
10719 10723 10736 10742 10742 10743 10744 10743 10745 10746 10754 10757 10755 10755 10761 10765 10777 10783 10784 10793 10805 10811 10815 10820 10828 10836 10841 10845 10851 10856 10861 10866 10870 10873 10877 10879 10882 10885 10888 10889 10891 10892 10893 10893 10893 10893 10893 10892 10892
10702 10709 10722 10727 10730 10728 10728 10726 10735 10738 10737 10744 10746 10746 10746 10754 10761 10772 10776 10785 10794 10801 10805 10814 10821 10825 10832 10836 10842 10848 10853 10857 10863 10867 10871 10873 10875 10880 10882 10884 10886 10886 10887 10887 10888 10888 10888 10887 10887
10685 10696 10708 10711 10707 10713 10708 10716 10722 10727 10733 10730 10730 10739 10737 10740 10752 10762 10768 10773 10783 10787 10797 10806 10816 10817 10821 10827 10834 10839 10844 10849 10853 10859 10864 10866 10870 10873 10876 10878 10880 10881 10881 10882 10882 10882 10882 10882 10882
10667 10683 10696 10687 10687 10696 10698 10706 10709 10713 10718 10720 10720 10720 10721 10731 10738 10745 10752 10760 10770 10775 10787 10811 10807 10809 10812 10817 10824 10830 10835 10840 10845 10850 10856 10860 10863 10865 10869 10871 10873 10874 10875 10876 10876 10876 10877 10877 10876
10652 10667 10677 10666 10672 10683 10685 10690 10694 10698 10704 10706 10706 10705 10704 10718 10725 10729 10738 10747 10755 10764 10776 10793 10794 10797 10800 10806 10815 10821 10826 10831 10836 10841 10847 10852 10855 10858 10860 10863 10866 10867 10869 10870 10870 10871 10871 10870 10870
10636 10653 10652 10654 10655 10662 10672 10675 10676 10682 10689 10689 10690 10692 10690 10703 10711 10715 10726 10736 10741 10753 10766 10784 10784 10780 10792 10803 10807 10812 10818 10823 10828 10832 10839 10842 10847 10851 10853 10856 10858 10861 10862 10863 10863 10864 10865 10864 10863
10624 10632 10633 10633 10638 10643 10651 10656 10662 10663 10671 10672 10672 10678 10679 10688 10700 10703 10712 10724 10732 10740 10752 10765 10771 10778 10786 10793 10798 10802 10809 10815 10820 10823 10831 10835 10839 10842 10847 10849 10851 10853 10855 10856 10856 10857 10857 10856 10856
10606 10610 10615 10617 10619 10625 10629 10637 10643 10648 10651 10652 10653 10663 10666 10676 10686 10687 10697 10709 10720 10733 10742 10756 10757 10766 10774 10779 10788 10791 10800 10808 10811 10816 10823 10826 10830 10835 10839 10842 10843 10845 10847 10848 10849 10849 10849 10849 10847
10582 10591 10595 10596 10598 10603 10606 10615 10619 10632 10627 10635 10635 10644 10655 10665 10668 10670 10680 10696 10705 10713 10722 10741 10753 10757 10765 10767 10775 10782 10790 10797 10801 10808 10813 10816 10821 10825 10829 10833 10836 10837 10839 10840 10841 10842 10841 10841 10839
10564 10571 10574 10575 10576 10579 10581 10601 10599 10602 10607 10619 10621 10630 10638 10649 10654 10656 10665 10682 10692 10703 10716 10727 10740 10750 10756 10753 10762 10773 10780 10787 10791 10798 10802 10808 10811 10815 10819 10823 10827 10829 10830 10832 10833 10832 10832 10832 10829
10542 10552 10553 10557 10556 10557 10563 10581 10578 10587 10593 10603 10604 10613 10623 10634 10637 10637 10653 10668 10679 10688 10701 10717 10731 10740 10747 10748 10754 10762 10770 10774 10780 10787 10792 10798 10803 10806 10810 10814 10817 10819 10822 10822 10823 10822 10822 10821 10819
10525 10529 10534 10534 10538 10539 10545 10558 10561 10567 10574 10582 10586 10597 10609 10614 10621 10627 10639 10656 10666 10677 10687 10705 10718 10729 10734 10740 10744 10748 10758 10765 10771 10778 10781 10786 10792 10796 10800 10804 10807 10809 10810 10810 10810 10810 10812 10810 10808
10509 10512 10514 10515 10517 10526 10527 10538 10543 10543 10556 10565 10573 10581 10593 10602 10607 10617 10627 10645 10658 10666 10676 10692 10706 10716 10727 10733 10735 10741 10748 10755 10761 10766 10770 10773 10779 10785 10791 10793 10795 10797 10797 10797 10797 10799 10800 10799 10797
10493 10494 10499 10501 10504 10508 10509 10517 10520 10528 10538 10550 10555 10570 10583 10587 10593 10604 10618 10637 10649 10658 10669 10684 10695 10705 10715 10722 10728 10734 10740 10746 10751 10757 10761 10762 10767 10772 10777 10779 10781 10784 10783 10784 10786 10787 10787 10787 10787
10480 10484 10487 10485 10488 10493 10495 10499 10504 10509 10519 10529 10540 10555 10563 10575 10582 10592 10615 10624 10639 10651 10663 10677 10690 10696 10701 10708 10715 10722 10731 10738 10744 10747 10751 10753 10757 10761 10766 10767 10769 10769 10769 10771 10775 10775 10776 10775 10775
10469 10470 10470 10474 10476 10478 10481 10484 10487 10492 10499 10507 10521 10535 10547 10559 10568 10588 10602 10614 10632 10644 10658 10671 10677 10685 10692 10698 10705 10713 10722 10726 10731 10734 10738 10743 10746 10750 10751 10753 10755 10756 10756 10759 10762 10763 10763 10762 10761
10455 10455 10458 10461 10463 10464 10466 10468 10470 10473 10479 10489 10501 10518 10532 10546 10560 10575 10588 10611 10620 10634 10649 10660 10666 10678 10683 10690 10697 10705 10709 10716 10719 10720 10727 10728 10733 10737 10741 10739 10742 10744 10744 10745 10747 10748 10749 10748 10747
10445 10445 10445 10446 10446 10450 10452 10454 10456 10461 10468 10479 10492 10507 10520 10541 10553 10565 10583 10600 10616 10629 10641 10649 10660 10667 10674 10682 10689 10694 10699 10703 10708 10711 10717 10717 10722 10722 10727 10728 10730 10731 10732 10732 10733 10733 10734 10733 10731
10432 10432 10431 10434 10436 10439 10440 10443 10448 10454 10463 10474 10487 10504 10516 10535 10545 10562 10575 10590 10607 10619 10634 10642 10649 10660 10667 10671 10676 10682 10687 10691 10695 10698 10703 10705 10708 10711 10714 10715 10716 10715 10715 10719 10717 10719 10720 10719 10717
10421 10422 10421 10423 10426 10431 10434 10437 10443 10452 10462 10474 10486 10501 10515 10529 10544 10553 10567 10580 10592 10610 10626 10633 10640 10644 10651 10658 10662 10667 10673 10677 10682 10684 10686 10687 10691 10697 10699 10702 10703 10699 10700 10701 10703 10706 10707 10706 10706
10415 10416 10417 10418 10421 10426 10431 10437 10443 10453 10464 10478 10489 10498 10511 10522 10538 10551 10561 10571 10587 10597 10608 10617 10624 10631 10636 10640 10645 10651 10659 10660 10665 10669 10672 10674 10678 10682 10684 10687 10686 10681 10683 10687 10689 10692 10696 10696 10693
10412 10414 10416 10416 10422 10428 10436 10441 10446 10457 10468 10479 10494 10501 10513 10524 10535 10541 10552 10563 10576 10584 10594 10605 10611 10616 10624 10629 10633 10635 10639 10646 10652 10655 10659 10660 10660 10664 10668 10672 10667 10666 10668 10676 10676 10679 10681 10681 10679
10414 10415 10417 10421 10426 10432 10437 10444 10451 10459 10471 10483 10493 10501 10511 10519 10528 10541 10551 10562 10571 10576 10588 10595 10600 10605 10609 10616 10618 10622 10626 10636 10640 10642 10644 10648 10647 10645 10651 10657 10656 10652 10655 10660 10661 10660 10666 10663 10664
10414 10417 10422 10427 10430 10435 10441 10448 10456 10463 10473 10482 10491 10506 10510 10520 10528 10539 10548 10555 10560 10569 10581 10584 10590 10595 10598 10603 10608 10612 10617 10622 10625 10629 10630 10631 10635 10633 10636 10640 10643 10642 10641 10641 10643 10645 10645 10644 10646
10417 10421 10425 10431 10438 10441 10447 10454 10461 10468 10476 10484 10495 10498 10505 10515 10528 10533 10543 10551 10560 10563 10570 10576 10580 10584 10586 10592 10596 10603 10605 10608 10615 10619 10618 10621 10621 10623 10623 10622 10625 10625 10623 10622 10620 10623 10623 10623 10623